This is the latest recevied weather packets stored in our database for station/object EB2EMZ-15. If no packets are shown the sender has not sent any weather packets the latest 10 day(s).
| Time | Temp. | Humidity | Pressure | Rain* | Wind** | Luminosity | Snow |
|---|---|---|---|---|---|---|---|
| 1777625117 | 27.22° C | 55% | 998.3 hPa | 0 mm | - | - | - |
| 1777624821 | 26.11° C | 57% | 998.3 hPa | 0 mm | - | - | - |
| 1777624518 | 25.56° C | 59% | 998.4 hPa | 0 mm | - | - | - |
| 1777624220 | 25° C | 60% | 998.5 hPa | 0 mm | - | - | - |
| 1777623917 | 25° C | 62% | 998.5 hPa | 0 mm | - | - | - |
| 1777623620 | 23.89° C | 64% | 998.5 hPa | 0 mm | - | - | - |
| 1777623317 | 23.33° C | 67% | 998.6 hPa | 0 mm | - | - | - |
| 1777623020 | 22.78° C | 68% | 998.6 hPa | 0 mm | - | - | - |
| 1777622718 | 22.22° C | 69% | 998.7 hPa | 0 mm | - | - | - |
| 1777622417 | 21.67° C | 70% | 998.6 hPa | 0 mm | - | - | - |
| 1777622118 | 21.67° C | 71% | 998.7 hPa | 0 mm | - | - | - |
| 1777621820 | 21.11° C | 73% | 998.8 hPa | 0 mm | - | - | - |
| 1777621518 | 20° C | 75% | 998.7 hPa | 0 mm | - | - | - |
| 1777621219 | 19.44° C | 76% | 998.6 hPa | 0 mm | - | - | - |
| 1777620918 | 18.89° C | 77% | 998.8 hPa | 0 mm | - | - | - |
| 1777620620 | 18.33° C | 77% | 998.7 hPa | 0 mm | - | - | - |
| 1777620317 | 18.33° C | 77% | 998.8 hPa | 0 mm | - | - | - |
| 1777620020 | 18.33° C | 78% | 998.7 hPa | 0 mm | - | - | - |
| 1777619717 | 18.33° C | 79% | 998.7 hPa | 0 mm | - | - | - |
| 1777619421 | 17.78° C | 79% | 998.6 hPa | 0 mm | - | - | - |
| 1777619117 | 17.78° C | 80% | 998.8 hPa | 0 mm | - | - | - |
| 1777618817 | 17.22° C | 81% | 998.7 hPa | 0 mm | - | - | - |
| 1777618517 | 17.22° C | 81% | 998.7 hPa | 0 mm | - | - | - |
| 1777618219 | 16.67° C | 82% | 998.8 hPa | 0 mm | - | - | - |
| 1777617917 | 16.67° C | 81% | 998.7 hPa | 0 mm | - | - | - |
* Rain latest hour (hover to see other rain measurements)
** Current wind speed in m/s (hover to see current wind gust speed)